GSAT0101 (GALILEO-PFM) (37846 NORAD) Tracking and Keplerian Element Data

This shows tracking and keplerian element data for the satellite.

Feedback or suggestion? Click here.




ElementValue
Catalog37846
NameGSAT0101 (GALILEO-PFM)
Epoch Orbit4197
Epoch Day199.74563556
Epoch Year2018
RAAN60.6383
Inclination56.13
Eccentricity0.0003547
Argument of Perigee7.859
Mean Anonmoly352.2097
Mean Motion1.70475974
Decay Rate-7.6E-07
L11 37846U 11060A 18199.74563556 -.00000076 00000-0 00000+0 0 9998
L22 37846 56.1300 60.6383 0003547 7.8590 352.2097 1.70475974 41972

Live tracking and technical data element details for GSAT0101 (GALILEO-PFM) (NORAD 37846). GSAT0101 (GALILEO-PFM) can be tracked NOW for your location showing map with azimuth and elevation plus other details from your city location.

Track the satellite on the map from your city or location and see movement details for azimuth, elevation, latitude, longitude, range, height, and movement on the map or in text.







IsCatalogInMostPopularTable: catalog: 37846, numindb: 46
Update: records affected: 1



GetName: 37846 GSAT0101 (GALILEO-PFM)

Hit Count: updated at: Mon, 23 Jul 2018 07:39:21 GMT